NKS33 KEWR-KDTW

Flight info

Callsign NKS33
Flight time N/A
Altitude 38000
Route GAYEL J95 CFB TRAAD JACCI FERRL2
Aircraft A20N/M-SDE2E3FGHIRWXY/LB1

Departure

Time 2026-05-06 18:48
Airport Newark Liberty International Airport (KEWR)

Arrival

Time N/A
Airport Detroit Metropolitan Wayne County Airport (KDTW)
Time Latitude Longitude Altitude Speed Heading
2026-05-06 18:27 40.69770 -74.16971 18 ft 0 kts 95°
2026-05-06 18:36 40.69771 -74.16979 18 ft 2 kts 90°
2026-05-06 18:37 40.69770 -74.16998 18 ft 2 kts 91°
2026-05-06 18:37 40.69771 -74.17012 18 ft 2 kts 91°
2026-05-06 18:37 40.69771 -74.17038 18 ft 2 kts 90°
2026-05-06 18:37 40.69771 -74.17058 18 ft 2 kts 90°
2026-05-06 18:38 40.69771 -74.17078 18 ft 2 kts 90°
2026-05-06 18:38 40.69771 -74.17097 18 ft 2 kts 90°
2026-05-06 18:38 40.69771 -74.17117 18 ft 1 kts 102°
2026-05-06 18:38 40.69776 -74.17131 18 ft 0 kts 138°
2026-05-06 18:39 40.69778 -74.17133 18 ft 0 kts 143°
2026-05-06 18:44 40.69775 -74.17130 18 ft 3 kts 143°
2026-05-06 18:45 40.69729 -74.17086 18 ft 10 kts 146°
2026-05-06 18:45 40.69655 -74.17036 17 ft 13 kts 157°
2026-05-06 18:45 40.69626 -74.16982 17 ft 9 kts 79°
2026-05-06 18:45 40.69644 -74.16911 17 ft 16 kts 70°
2026-05-06 18:46 40.69723 -74.16722 17 ft 17 kts 29°
2026-05-06 18:46 40.69835 -74.16653 17 ft 17 kts 26°
2026-05-06 18:46 40.69937 -74.16586 17 ft 13 kts 26°
2026-05-06 18:46 40.70021 -74.16532 17 ft 13 kts 26°
2026-05-06 18:47 40.70067 -74.16438 17 ft 13 kts 95°
2026-05-06 18:47 40.70009 -74.16375 17 ft 13 kts 205°
2026-05-06 18:47 40.69791 -74.16520 18 ft 71 kts 206°
2026-05-06 18:47 40.69124 -74.16943 18 ft 139 kts 206°
2026-05-06 18:48 40.68126 -74.17570 275 ft 170 kts 206°
2026-05-06 18:48 40.67024 -74.18185 933 ft 178 kts 197°
2026-05-06 18:48 40.65774 -74.18620 1547 ft 194 kts 195°
2026-05-06 18:48 40.64464 -74.19086 2277 ft 200 kts 196°
2026-05-06 18:49 40.63128 -74.19620 3001 ft 204 kts 198°
2026-05-06 18:49 40.61798 -74.20215 3753 ft 206 kts 201°
2026-05-06 18:49 40.60469 -74.20921 4463 ft 209 kts 205°
2026-05-06 18:49 40.59118 -74.21757 4841 ft 231 kts 208°
2026-05-06 18:50 40.57699 -74.22848 4655 ft 234 kts 221°
2026-05-06 18:50 40.56820 -74.24580 4410 ft 230 kts 250°
2026-05-06 18:50 40.56815 -74.26688 4206 ft 235 kts 278°
2026-05-06 18:50 40.57423 -74.28756 4215 ft 253 kts 286°
2026-05-06 18:51 40.58177 -74.30873 4667 ft 259 kts 288°
2026-05-06 18:51 40.58964 -74.33003 5279 ft 263 kts 288°
2026-05-06 18:51 40.59778 -74.35169 5890 ft 266 kts 288°
2026-05-06 18:51 40.60610 -74.37331 6495 ft 268 kts 289°
2026-05-06 18:52 40.61482 -74.39507 7104 ft 274 kts 295°
2026-05-06 18:52 40.62767 -74.41429 7676 ft 291 kts 316°
2026-05-06 18:52 40.64655 -74.42570 8259 ft 309 kts 341°
2026-05-06 18:52 40.66791 -74.43073 8844 ft 314 kts 346°
2026-05-06 18:53 40.68954 -74.43422 9419 ft 317 kts 348°
2026-05-06 18:53 40.71161 -74.43752 9851 ft 319 kts 348°
2026-05-06 18:53 40.73364 -74.44090 9998 ft 319 kts 348°
2026-05-06 18:53 40.75567 -74.44405 10004 ft 318 kts 348°
2026-05-06 18:54 40.77770 -74.44702 9939 ft 318 kts 348°
2026-05-06 18:54 40.80024 -74.44738 9936 ft 327 kts 360°
2026-05-06 18:54 40.82295 -74.44373 10276 ft 339 kts
2026-05-06 18:54 40.84687 -74.43929 10712 ft 352 kts
2026-05-06 18:55 40.87159 -74.43494 11046 ft 367 kts
2026-05-06 18:55 40.89759 -74.43069 11414 ft 380 kts
2026-05-06 18:55 40.92427 -74.42680 11709 ft 396 kts
2026-05-06 18:55 40.95221 -74.42287 11985 ft 409 kts
2026-05-06 18:56 40.98119 -74.41878 12255 ft 422 kts
2026-05-06 18:56 41.01077 -74.41457 12515 ft 436 kts
2026-05-06 18:56 41.04148 -74.41012 12855 ft 446 kts
2026-05-06 18:56 41.07256 -74.40556 13398 ft 451 kts
2026-05-06 18:57 41.10387 -74.40095 13979 ft 454 kts
2026-05-06 18:57 41.11034 -74.40001 14094 ft 455 kts
2026-05-06 18:57 41.13591 -74.39632 14527 ft 457 kts
2026-05-06 18:57 41.16754 -74.39171 15047 ft 461 kts
2026-05-06 18:58 41.19970 -74.38699 15584 ft 462 kts
2026-05-06 18:58 41.23162 -74.38241 16088 ft 465 kts
2026-05-06 18:58 41.26416 -74.37773 16600 ft 467 kts
2026-05-06 18:58 41.29613 -74.37629 17063 ft 459 kts 347°
2026-05-06 18:59 41.32603 -74.38818 17544 ft 442 kts 326°
2026-05-06 18:59 41.34954 -74.41251 18044 ft 425 kts 306°
2026-05-06 18:59 41.36614 -74.44465 18526 ft 418 kts 296°
2026-05-06 18:59 41.38122 -74.47765 18918 ft 422 kts 296°
2026-05-06 19:00 41.39695 -74.51105 19315 ft 425 kts 297°
2026-05-06 19:00 41.41301 -74.54432 19722 ft 428 kts 298°
2026-05-06 19:00 41.42921 -74.57732 20136 ft 431 kts 298°
2026-05-06 19:00 41.44036 -74.59983 20409 ft 431 kts 298°
2026-05-06 19:01 41.46249 -74.64427 20911 ft 433 kts 298°
2026-05-06 19:01 41.47925 -74.67787 21284 ft 436 kts 297°
2026-05-06 19:01 41.49606 -74.71155 21683 ft 439 kts 297°
2026-05-06 19:01 41.51299 -74.74543 22083 ft 440 kts 297°
2026-05-06 19:02 41.52994 -74.77936 22468 ft 442 kts 297°
2026-05-06 19:02 41.54719 -74.81389 22848 ft 444 kts 297°
2026-05-06 19:02 41.56423 -74.84804 23205 ft 445 kts 297°
2026-05-06 19:02 41.58131 -74.88228 23598 ft 445 kts 297°
2026-05-06 19:03 41.59849 -74.91675 24048 ft 443 kts 297°
2026-05-06 19:03 41.61549 -74.95088 24505 ft 441 kts 297°
2026-05-06 19:03 41.63248 -74.98504 24940 ft 440 kts 297°
2026-05-06 19:03 41.64937 -75.01906 25406 ft 439 kts 297°
2026-05-06 19:04 41.66623 -75.05306 25905 ft 437 kts 297°
2026-05-06 19:04 41.68294 -75.08678 26416 ft 435 kts 297°
2026-05-06 19:04 41.69969 -75.12061 26925 ft 432 kts 297°
2026-05-06 19:04 41.71600 -75.15361 27420 ft 430 kts 297°
2026-05-06 19:05 41.73246 -75.18690 27915 ft 427 kts 297°
2026-05-06 19:05 41.74890 -75.22017 28408 ft 424 kts 297°
2026-05-06 19:05 41.76493 -75.25266 28895 ft 421 kts 297°
2026-05-06 19:05 41.78101 -75.28530 29386 ft 419 kts 296°
2026-05-06 19:06 41.79695 -75.31773 29875 ft 415 kts 296°
2026-05-06 19:06 41.81276 -75.34988 30351 ft 412 kts 296°
2026-05-06 19:06 41.82836 -75.38171 30816 ft 409 kts 296°
2026-05-06 19:06 41.84395 -75.41346 31246 ft 406 kts 296°
2026-05-06 19:07 41.85926 -75.44472 31684 ft 402 kts 295°
2026-05-06 19:07 41.86955 -75.46577 31982 ft 399 kts 295°
2026-05-06 19:07 41.88955 -75.50693 32571 ft 393 kts 295°
2026-05-06 19:07 41.90438 -75.53728 32986 ft 389 kts 295°
2026-05-06 19:08 41.91915 -75.56760 33396 ft 385 kts 295°
2026-05-06 19:08 41.93365 -75.59744 33789 ft 381 kts 294°
2026-05-06 19:08 41.94741 -75.62769 34187 ft 375 kts 292°
2026-05-06 19:08 41.96017 -75.65786 34552 ft 370 kts 291°
2026-05-06 19:09 41.97263 -75.68767 34926 ft 366 kts 291°
2026-05-06 19:09 41.98496 -75.71725 35289 ft 363 kts 291°
2026-05-06 19:09 41.99731 -75.74697 35641 ft 360 kts 290°
2026-05-06 19:09 42.00941 -75.77611 35933 ft 357 kts 290°
2026-05-06 19:10 42.02148 -75.80528 36173 ft 356 kts 290°
2026-05-06 19:10 42.03355 -75.83447 36361 ft 356 kts 290°
2026-05-06 19:10 42.04557 -75.86361 36521 ft 357 kts 290°
2026-05-06 19:10 42.05764 -75.89290 36647 ft 358 kts 290°
2026-05-06 19:11 42.06962 -75.92201 36777 ft 359 kts 290°
2026-05-06 19:11 42.08175 -75.95149 36905 ft 359 kts 290°
2026-05-06 19:11 42.09378 -75.98074 37023 ft 360 kts 290°
2026-05-06 19:12 42.11779 -76.04012 37209 ft 359 kts 288°
2026-05-06 19:12 42.13771 -76.10110 37378 ft 354 kts 283°
2026-05-06 19:13 42.15275 -76.16364 37528 ft 351 kts 279°
2026-05-06 19:13 42.16304 -76.22763 37657 ft 349 kts 275°
2026-05-06 19:14 42.16900 -76.29215 37764 ft 348 kts 272°
2026-05-06 19:14 42.17422 -76.35738 37819 ft 349 kts 272°
2026-05-06 19:15 42.17930 -76.42245 37825 ft 350 kts 272°
2026-05-06 19:15 42.18430 -76.48778 37830 ft 350 kts 272°
2026-05-06 19:16 42.18926 -76.55362 37830 ft 351 kts 272°
2026-05-06 19:16 42.19414 -76.61900 37840 ft 351 kts 272°
2026-05-06 19:17 42.19901 -76.68495 37851 ft 352 kts 272°
2026-05-06 19:17 42.20385 -76.75098 37853 ft 353 kts 272°
2026-05-06 19:18 42.20866 -76.81705 37854 ft 353 kts 272°
2026-05-06 19:18 42.21339 -76.88286 37856 ft 353 kts 271°
2026-05-06 19:19 42.21807 -76.94856 37857 ft 353 kts 271°
2026-05-06 19:19 42.22274 -77.01453 37858 ft 353 kts 271°
2026-05-06 19:20 42.22737 -77.08044 37862 ft 353 kts 272°
2026-05-06 19:20 42.23195 -77.14625 37866 ft 353 kts 272°
2026-05-06 19:21 42.23653 -77.21227 37871 ft 353 kts 272°
2026-05-06 19:21 42.24104 -77.27795 37875 ft 352 kts 271°
2026-05-06 19:22 42.24551 -77.34395 37878 ft 351 kts 271°
2026-05-06 19:22 42.24992 -77.40974 37880 ft 350 kts 271°
2026-05-06 19:23 42.25442 -77.47536 37883 ft 350 kts 273°